EZY69KW EDDM-EGCC

Flight info

Callsign EZY69KW
Flight time 1h 45m
Altitude 34000
Route INPUD2S INPUD Y102 ALIBU DCT MASEK DCT ARPEG DCT GALSO Q63 ERING L179 LAM UN57 WELIN T420 ELVOS
Aircraft A20N/M-SDE2E3FGHIRWXY/LB1

Departure

Time 2026-05-07 16:40
Airport Munich Airport (EDDM)

Arrival

Time 2026-05-07 18:25
Airport Manchester Airport (EGCC)
Time Latitude Longitude Altitude Speed Heading
2026-05-07 16:07 48.35351 11.79321 1479 ft 0 kts 268°
2026-05-07 16:21 48.35351 11.79346 1477 ft 3 kts 268°
2026-05-07 16:21 48.35352 11.79374 1473 ft 3 kts 268°
2026-05-07 16:21 48.35352 11.79402 1473 ft 3 kts 268°
2026-05-07 16:21 48.35353 11.79431 1473 ft 3 kts 268°
2026-05-07 16:22 48.35353 11.79437 1473 ft 2 kts 276°
2026-05-07 16:22 48.35347 11.79464 1470 ft 3 kts 315°
2026-05-07 16:22 48.35330 11.79478 1470 ft 3 kts 356°
2026-05-07 16:22 48.35319 11.79478 1474 ft 0 kts 356°
2026-05-07 16:27 48.35361 11.79473 1470 ft 18 kts 353°
2026-05-07 16:28 48.35531 11.79441 1467 ft 24 kts 350°
2026-05-07 16:28 48.35687 11.79413 1470 ft 21 kts 353°
2026-05-07 16:28 48.35825 11.79390 1471 ft 19 kts 352°
2026-05-07 16:28 48.35925 11.79354 1465 ft 13 kts 335°
2026-05-07 16:29 48.36003 11.79333 1470 ft 11 kts 355°
2026-05-07 16:29 48.36034 11.79329 1471 ft 0 kts 355°
2026-05-07 16:30 48.36115 11.79315 1466 ft 22 kts 351°
2026-05-07 16:30 48.36210 11.79423 1463 ft 19 kts 81°
2026-05-07 16:30 48.36220 11.79555 1470 ft 2 kts 83°
2026-05-07 16:31 48.36221 11.79564 1470 ft 1 kts 83°
2026-05-07 16:31 48.36222 11.79572 1460 ft 1 kts 83°
2026-05-07 16:31 48.36222 11.79581 1461 ft 2 kts 83°
2026-05-07 16:31 48.36224 11.79599 1460 ft 2 kts 82°
2026-05-07 16:32 48.36225 11.79609 1462 ft 0 kts 81°
2026-05-07 16:32 48.36225 11.79610 1462 ft 1 kts 81°
2026-05-07 16:32 48.36226 11.79620 1466 ft 3 kts 80°
2026-05-07 16:32 48.36235 11.79722 1464 ft 14 kts 84°
2026-05-07 16:33 48.36251 11.79942 1461 ft 23 kts 83°
2026-05-07 16:33 48.36272 11.80180 1466 ft 23 kts 78°
2026-05-07 16:33 48.36285 11.80413 1467 ft 22 kts 87°
2026-05-07 16:33 48.36304 11.80638 1467 ft 22 kts 82°
2026-05-07 16:34 48.36322 11.80863 1466 ft 22 kts 82°
2026-05-07 16:34 48.36339 11.81085 1463 ft 21 kts 84°
2026-05-07 16:34 48.36353 11.81305 1462 ft 21 kts 83°
2026-05-07 16:34 48.36372 11.81522 1463 ft 21 kts 82°
2026-05-07 16:35 48.36388 11.81739 1463 ft 21 kts 84°
2026-05-07 16:35 48.36395 11.81951 1462 ft 19 kts 80°
2026-05-07 16:35 48.36470 11.82002 1457 ft 12 kts 349°
2026-05-07 16:35 48.36475 11.82001 1459 ft 0 kts 350°
2026-05-07 16:37 48.36477 11.82000 1459 ft 0 kts 350°
2026-05-07 16:37 48.36478 11.82000 1462 ft 0 kts 350°
2026-05-07 16:38 48.36523 11.81990 1460 ft 23 kts 352°
2026-05-07 16:38 48.36670 11.81896 1458 ft 22 kts 280°
2026-05-07 16:39 48.36655 11.81650 1463 ft 34 kts 264°
2026-05-07 16:39 48.36599 11.80945 1459 ft 105 kts 264°
2026-05-07 16:39 48.36483 11.79460 1472 ft 176 kts 262°
2026-05-07 16:39 48.36346 11.77487 1874 ft 198 kts 267°
2026-05-07 16:40 48.36244 11.75339 2651 ft 214 kts 268°
2026-05-07 16:40 48.36131 11.73027 3363 ft 232 kts 265°
2026-05-07 16:40 48.35929 11.70467 3743 ft 259 kts 266°
2026-05-07 16:40 48.36146 11.67825 4118 ft 258 kts 294°
2026-05-07 16:41 48.37313 11.65817 4541 ft 258 kts 330°
2026-05-07 16:41 48.39017 11.64936 5073 ft 263 kts 346°
2026-05-07 16:41 48.40843 11.64397 5687 ft 269 kts 348°
2026-05-07 16:41 48.42705 11.63896 6435 ft 275 kts 348°
2026-05-07 16:42 48.44595 11.63375 7147 ft 279 kts 347°
2026-05-07 16:42 48.46513 11.62831 7870 ft 282 kts 347°
2026-05-07 16:42 48.48456 11.62271 8607 ft 286 kts 347°
2026-05-07 16:42 48.50417 11.61699 9354 ft 289 kts 347°
2026-05-07 16:43 48.52401 11.61118 10109 ft 292 kts 346°
2026-05-07 16:43 48.54389 11.60534 10808 ft 296 kts 346°
2026-05-07 16:43 48.56449 11.59899 11533 ft 301 kts 343°
2026-05-07 16:43 48.58455 11.58942 12272 ft 306 kts 337°
2026-05-07 16:44 48.60467 11.57802 13026 ft 312 kts 336°
2026-05-07 16:44 48.62493 11.56621 13793 ft 318 kts 335°
2026-05-07 16:44 48.64574 11.55406 14493 ft 324 kts 335°
2026-05-07 16:44 48.66694 11.54172 15201 ft 328 kts 335°
2026-05-07 16:45 48.68838 11.52925 15934 ft 332 kts 335°
2026-05-07 16:45 48.71004 11.51669 16674 ft 335 kts 335°
2026-05-07 16:45 48.73192 11.50401 17436 ft 337 kts 335°
2026-05-07 16:45 48.75391 11.49128 18224 ft 338 kts 335°
2026-05-07 16:46 48.77593 11.47851 18919 ft 339 kts 335°
2026-05-07 16:46 48.79799 11.46571 19631 ft 340 kts 335°
2026-05-07 16:46 48.82011 11.45286 20345 ft 340 kts 335°
2026-05-07 16:46 48.84210 11.44007 21077 ft 339 kts 335°
2026-05-07 16:47 48.86410 11.42727 21834 ft 338 kts 335°
2026-05-07 16:47 48.88625 11.41432 22400 ft 344 kts 335°
2026-05-07 16:47 48.90873 11.40115 22890 ft 349 kts 335°
2026-05-07 16:47 48.93155 11.38779 23384 ft 354 kts 335°
2026-05-07 16:48 48.95474 11.37423 23842 ft 359 kts 335°
2026-05-07 16:48 48.97818 11.36051 24269 ft 362 kts 335°
2026-05-07 16:48 49.00172 11.34673 24698 ft 365 kts 335°
2026-05-07 16:48 49.02558 11.33275 25135 ft 368 kts 335°
2026-05-07 16:49 49.04953 11.31870 25585 ft 370 kts 335°
2026-05-07 16:49 49.07365 11.30454 26041 ft 371 kts 335°
2026-05-07 16:49 49.09770 11.29039 26492 ft 372 kts 335°
2026-05-07 16:49 49.12195 11.27611 26961 ft 373 kts 334°
2026-05-07 16:50 49.14615 11.26185 27429 ft 373 kts 334°
2026-05-07 16:50 49.16222 11.25238 27750 ft 373 kts 334°
2026-05-07 16:50 49.19453 11.23331 28401 ft 372 kts 334°
2026-05-07 16:50 49.21046 11.22392 28732 ft 371 kts 334°
2026-05-07 16:51 49.24274 11.20532 29324 ft 371 kts 334°
2026-05-07 16:51 49.29228 11.17722 29530 ft 389 kts 335°
2026-05-07 16:52 49.33527 11.15291 29676 ft 403 kts 335°
2026-05-07 16:52 49.38906 11.12244 29856 ft 420 kts 335°
2026-05-07 16:53 49.44489 11.09072 30021 ft 436 kts 335°
2026-05-07 16:53 49.50276 11.05769 30179 ft 451 kts 334°
2026-05-07 16:54 49.55909 11.01322 30324 ft 460 kts 325°
2026-05-07 16:54 49.61421 10.96252 30466 ft 461 kts 324°
2026-05-07 16:55 49.66873 10.91087 30617 ft 458 kts 324°
2026-05-07 16:55 49.72294 10.85931 30765 ft 458 kts 324°
2026-05-07 16:56 49.77713 10.80784 30914 ft 457 kts 324°
2026-05-07 16:56 49.85833 10.73065 31151 ft 456 kts 324°
2026-05-07 16:57 49.91242 10.67907 31303 ft 456 kts 324°
2026-05-07 16:57 49.96642 10.62742 31444 ft 456 kts 323°
2026-05-07 16:58 50.02037 10.57565 31613 ft 456 kts 323°
2026-05-07 16:58 50.07428 10.52376 31774 ft 456 kts 323°
2026-05-07 16:59 50.12788 10.47204 31937 ft 455 kts 323°
2026-05-07 16:59 50.18167 10.41999 32090 ft 455 kts 323°
2026-05-07 17:00 50.23548 10.36789 32255 ft 455 kts 323°
2026-05-07 17:00 50.28923 10.31590 32412 ft 454 kts 323°
2026-05-07 17:01 50.34287 10.26390 32572 ft 454 kts 323°
2026-05-07 17:01 50.39142 10.20296 32742 ft 444 kts 309°
2026-05-07 17:02 50.43339 10.13208 32907 ft 443 kts 307°
2026-05-07 17:02 50.47401 10.05933 33091 ft 443 kts 306°
2026-05-07 17:03 50.51446 9.98627 33239 ft 443 kts 306°
2026-05-07 17:03 50.55495 9.91336 33408 ft 444 kts 306°
2026-05-07 17:04 50.59561 9.84020 33549 ft 444 kts 307°
2026-05-07 17:04 50.61590 9.80364 33664 ft 443 kts 306°
2026-05-07 17:04 50.63623 9.76700 33727 ft 443 kts 306°
2026-05-07 17:05 50.65644 9.73048 33831 ft 443 kts 306°
2026-05-07 17:05 50.67669 9.69386 33923 ft 443 kts 306°
2026-05-07 17:05 50.71602 9.62003 34023 ft 439 kts 300°
2026-05-07 17:06 50.74359 9.53498 34023 ft 430 kts 288°
2026-05-07 17:06 50.76456 9.44735 34024 ft 429 kts 285°
2026-05-07 17:07 50.78449 9.35806 34026 ft 429 kts 285°
2026-05-07 17:07 50.80427 9.26916 34028 ft 429 kts 285°
2026-05-07 17:08 50.82421 9.18020 34031 ft 429 kts 286°
2026-05-07 17:08 50.84409 9.09163 34030 ft 430 kts 286°
2026-05-07 17:09 50.86402 9.00256 34029 ft 430 kts 286°
2026-05-07 17:09 50.88395 8.91304 34031 ft 430 kts 286°
2026-05-07 17:10 50.90378 8.82359 34021 ft 430 kts 286°
2026-05-07 17:10 50.92353 8.73403 34025 ft 431 kts 286°
2026-05-07 17:11 50.94321 8.64445 34024 ft 431 kts 286°
2026-05-07 17:11 50.96291 8.55435 34026 ft 432 kts 286°
2026-05-07 17:12 50.98252 8.46431 34026 ft 432 kts 286°
2026-05-07 17:12 51.00205 8.37423 34024 ft 432 kts 286°
2026-05-07 17:13 51.02092 8.28373 34027 ft 431 kts 284°
2026-05-07 17:13 51.03642 8.19169 34033 ft 431 kts 282°
2026-05-07 17:14 51.05073 8.09987 34021 ft 431 kts 282°
2026-05-07 17:14 51.06535 8.00691 34031 ft 431 kts 282°
2026-05-07 17:15 51.08007 7.91448 34028 ft 431 kts 284°
2026-05-07 17:15 51.09481 7.82234 34030 ft 431 kts 284°
2026-05-07 17:16 51.10951 7.72992 34028 ft 431 kts 284°
2026-05-07 17:16 51.12410 7.63755 34035 ft 431 kts 284°
2026-05-07 17:17 51.13865 7.54484 34029 ft 431 kts 284°
2026-05-07 17:17 51.15304 7.45258 34028 ft 431 kts 284°
2026-05-07 17:18 51.16734 7.36038 34030 ft 430 kts 283°
2026-05-07 17:18 51.18160 7.26792 34030 ft 430 kts 283°
2026-05-07 17:19 51.19583 7.17509 34016 ft 430 kts 283°
2026-05-07 17:19 51.20993 7.08263 34022 ft 430 kts 283°
2026-05-07 17:20 51.22396 6.99012 34025 ft 429 kts 283°
2026-05-07 17:20 51.23797 6.89715 34018 ft 429 kts 283°
2026-05-07 17:21 51.25187 6.80437 34012 ft 432 kts 283°
2026-05-07 17:21 51.26569 6.71157 34015 ft 435 kts 283°
2026-05-07 17:22 51.27962 6.61754 34013 ft 434 kts 282°
2026-05-07 17:22 51.29345 6.52356 34017 ft 434 kts 282°
2026-05-07 17:23 51.30716 6.42979 34022 ft 434 kts 282°
2026-05-07 17:23 51.32096 6.33583 34022 ft 434 kts 282°
2026-05-07 17:24 51.33451 6.24180 34018 ft 434 kts 282°
2026-05-07 17:24 51.34790 6.14785 34019 ft 434 kts 282°
2026-05-07 17:25 51.36129 6.05377 34024 ft 434 kts 282°
2026-05-07 17:25 51.37463 5.95974 34020 ft 434 kts 282°
2026-05-07 17:26 51.38794 5.86550 34017 ft 433 kts 281°
2026-05-07 17:26 51.40105 5.77194 34035 ft 433 kts 281°
2026-05-07 17:27 51.41417 5.67775 34043 ft 433 kts 281°
2026-05-07 17:27 51.42720 5.58363 34047 ft 434 kts 281°
2026-05-07 17:28 51.44018 5.48917 34048 ft 434 kts 281°
2026-05-07 17:28 51.45309 5.39465 34047 ft 434 kts 281°
2026-05-07 17:29 51.46594 5.30003 34053 ft 434 kts 281°
2026-05-07 17:29 51.47866 5.20564 34041 ft 434 kts 281°
2026-05-07 17:30 51.49138 5.11102 34042 ft 434 kts 281°
2026-05-07 17:30 51.50395 5.01635 34042 ft 434 kts 281°
2026-05-07 17:31 51.51621 4.92350 34042 ft 434 kts 281°
2026-05-07 17:31 51.52871 4.82823 34043 ft 434 kts 281°
2026-05-07 17:32 51.53958 4.74499 34045 ft 434 kts 281°
2026-05-07 17:32 51.54992 4.66665 34047 ft 434 kts 281°
2026-05-07 17:33 51.56438 4.55589 34044 ft 433 kts 281°
2026-05-07 17:33 51.57631 4.46103 34045 ft 433 kts 280°
2026-05-07 17:34 51.58811 4.36618 34042 ft 433 kts 280°
2026-05-07 17:34 51.60003 4.27120 34044 ft 433 kts 280°
2026-05-07 17:35 51.61194 4.17634 34046 ft 432 kts 280°
2026-05-07 17:35 51.62380 4.08138 34049 ft 432 kts 280°
2026-05-07 17:36 51.63554 3.98660 34048 ft 432 kts 280°
2026-05-07 17:36 51.64721 3.89169 34046 ft 432 kts 279°
2026-05-07 17:37 51.65681 3.81296 34047 ft 432 kts 279°
2026-05-07 17:37 51.67018 3.70261 34046 ft 431 kts 279°
2026-05-07 17:38 51.68156 3.60791 34045 ft 431 kts 279°
2026-05-07 17:38 51.69105 3.52838 34050 ft 431 kts 279°
2026-05-07 17:39 51.70230 3.43350 34050 ft 431 kts 279°
2026-05-07 17:39 51.71346 3.33866 34054 ft 430 kts 279°
2026-05-07 17:40 51.72447 3.24442 34050 ft 430 kts 279°
2026-05-07 17:40 51.72936 3.14833 34055 ft 427 kts 265°
2026-05-07 17:41 51.72328 3.05367 34055 ft 427 kts 262°
2026-05-07 17:41 51.71499 2.95885 34048 ft 427 kts 261°
2026-05-07 17:42 51.70632 2.86399 34047 ft 427 kts 261°
2026-05-07 17:42 51.69780 2.76942 34046 ft 427 kts 261°
2026-05-07 17:43 51.68933 2.67468 34047 ft 427 kts 261°
2026-05-07 17:43 51.68086 2.57998 34044 ft 426 kts 261°
2026-05-07 17:44 51.67236 2.48548 34047 ft 426 kts 261°
2026-05-07 17:44 51.66379 2.39098 34044 ft 426 kts 261°
2026-05-07 17:45 51.65520 2.29659 34044 ft 426 kts 261°
2026-05-07 17:45 51.64658 2.20222 34068 ft 426 kts 261°
2026-05-07 17:46 51.63787 2.10787 34066 ft 426 kts 261°
2026-05-07 17:46 51.62908 2.01365 34067 ft 425 kts 261°
2026-05-07 17:47 51.62023 1.91953 34066 ft 425 kts 261°
2026-05-07 17:47 51.61132 1.82562 34069 ft 425 kts 261°
2026-05-07 17:48 51.60233 1.73175 34072 ft 424 kts 261°
2026-05-07 17:48 51.59371 1.63854 34067 ft 424 kts 264°
2026-05-07 17:49 51.59376 1.54308 34065 ft 424 kts 271°
2026-05-07 17:49 51.59738 1.44891 34068 ft 425 kts 273°
2026-05-07 17:50 51.60164 1.35440 34068 ft 425 kts 273°
2026-05-07 17:50 51.60578 1.25952 34067 ft 424 kts 272°
2026-05-07 17:51 51.60969 1.16486 34072 ft 424 kts 272°
2026-05-07 17:51 51.61347 1.07011 34072 ft 424 kts 272°
2026-05-07 17:52 51.61716 0.97554 34073 ft 424 kts 272°
2026-05-07 17:52 51.62076 0.88117 34078 ft 424 kts 272°
2026-05-07 17:53 51.62432 0.78630 34077 ft 423 kts 272°
2026-05-07 17:53 51.62778 0.69188 34076 ft 423 kts 272°
2026-05-07 17:54 51.63115 0.59787 34077 ft 423 kts 272°
2026-05-07 17:54 51.63448 0.50281 34074 ft 423 kts 272°
2026-05-07 17:55 51.63771 0.40854 34070 ft 422 kts 272°
2026-05-07 17:55 51.64087 0.31396 34050 ft 422 kts 272°
2026-05-07 17:56 51.64603 0.21988 34048 ft 423 kts 279°
2026-05-07 17:56 51.66569 0.13074 33789 ft 427 kts 297°
2026-05-07 17:57 51.68242 0.09118 33470 ft 430 kts 307°
2026-05-07 17:57 51.69605 0.06766 33253 ft 433 kts 314°
2026-05-07 17:57 51.72674 0.02503 32824 ft 436 kts 318°
2026-05-07 17:57 51.75022 -0.00587 32506 ft 438 kts 318°
2026-05-07 17:58 51.77384 -0.03699 32189 ft 439 kts 318°
2026-05-07 17:58 51.79723 -0.06796 31875 ft 439 kts 318°
2026-05-07 17:58 51.82083 -0.09935 31574 ft 440 kts 318°
2026-05-07 17:58 51.84435 -0.13076 31270 ft 440 kts 318°
2026-05-07 17:59 51.86805 -0.16246 30970 ft 441 kts 317°
2026-05-07 17:59 51.89169 -0.19417 30673 ft 442 kts 317°
2026-05-07 17:59 51.91537 -0.22598 30377 ft 442 kts 317°
2026-05-07 17:59 51.93901 -0.25778 30075 ft 442 kts 317°
2026-05-07 18:00 51.96252 -0.28945 29721 ft 441 kts 317°
2026-05-07 18:00 51.98621 -0.32140 29382 ft 439 kts 317°
2026-05-07 18:00 52.00960 -0.35299 29044 ft 437 kts 318°
2026-05-07 18:00 52.03279 -0.38437 28707 ft 435 kts 317°
2026-05-07 18:01 52.05613 -0.41599 28382 ft 433 kts 317°
2026-05-07 18:01 52.07914 -0.44721 28042 ft 431 kts 317°
2026-05-07 18:01 52.10217 -0.47850 27716 ft 429 kts 317°
2026-05-07 18:01 52.12504 -0.50962 27386 ft 428 kts 317°
2026-05-07 18:02 52.17043 -0.57150 26761 ft 424 kts 317°
2026-05-07 18:02 52.19300 -0.60234 26451 ft 423 kts 317°
2026-05-07 18:02 52.21549 -0.63311 26153 ft 421 kts 317°
2026-05-07 18:03 52.23753 -0.66330 25843 ft 419 kts 317°
2026-05-07 18:03 52.26018 -0.69437 25535 ft 418 kts 317°
2026-05-07 18:03 52.28237 -0.72485 25234 ft 416 kts 317°
2026-05-07 18:03 52.30416 -0.75482 24952 ft 415 kts 317°
2026-05-07 18:04 52.32619 -0.78517 24657 ft 413 kts 317°
2026-05-07 18:04 52.34810 -0.81538 24367 ft 412 kts 317°
2026-05-07 18:04 52.36993 -0.84553 24084 ft 410 kts 317°
2026-05-07 18:04 52.39169 -0.87562 23797 ft 408 kts 317°
2026-05-07 18:05 52.41335 -0.90561 23506 ft 407 kts 317°
2026-05-07 18:05 52.43488 -0.93546 23178 ft 405 kts 317°
2026-05-07 18:05 52.45636 -0.96529 22848 ft 404 kts 317°
2026-05-07 18:05 52.47773 -0.99500 22519 ft 402 kts 317°
2026-05-07 18:06 52.49903 -1.02465 22196 ft 400 kts 317°
2026-05-07 18:06 52.52017 -1.05412 21885 ft 399 kts 317°
2026-05-07 18:06 52.54129 -1.08360 21559 ft 397 kts 317°
2026-05-07 18:06 52.56223 -1.11287 21247 ft 395 kts 317°
2026-05-07 18:07 52.58318 -1.14217 20939 ft 394 kts 317°
2026-05-07 18:07 52.60404 -1.17141 20628 ft 393 kts 317°
2026-05-07 18:07 52.62478 -1.20049 20323 ft 391 kts 317°
2026-05-07 18:07 52.64541 -1.22947 20025 ft 389 kts 317°
2026-05-07 18:08 52.66599 -1.25842 19728 ft 388 kts 317°
2026-05-07 18:08 52.68645 -1.28724 19405 ft 387 kts 317°
2026-05-07 18:08 52.70780 -1.31415 19116 ft 387 kts 324°
2026-05-07 18:08 52.73002 -1.33759 18832 ft 386 kts 326°
2026-05-07 18:09 52.75325 -1.36116 18567 ft 385 kts 327°
2026-05-07 18:09 52.77604 -1.38423 18278 ft 383 kts 327°
2026-05-07 18:09 52.79871 -1.40725 17867 ft 381 kts 326°
2026-05-07 18:09 52.82096 -1.42993 17305 ft 376 kts 326°
2026-05-07 18:10 52.84310 -1.45255 16757 ft 373 kts 326°
2026-05-07 18:10 52.86499 -1.47497 16208 ft 369 kts 326°
2026-05-07 18:10 52.88665 -1.49719 15685 ft 365 kts 326°
2026-05-07 18:10 52.90810 -1.51922 15157 ft 362 kts 326°
2026-05-07 18:11 52.92946 -1.54119 14646 ft 359 kts 326°
2026-05-07 18:11 52.94353 -1.55568 14307 ft 358 kts 326°
2026-05-07 18:11 52.97160 -1.58463 13627 ft 354 kts 326°
2026-05-07 18:11 52.99245 -1.60616 13052 ft 352 kts 326°
2026-05-07 18:12 53.01313 -1.62753 12508 ft 349 kts 326°
2026-05-07 18:12 53.03365 -1.64876 11951 ft 346 kts 326°
2026-05-07 18:12 53.05336 -1.67140 11408 ft 341 kts 315°
2026-05-07 18:12 53.06968 -1.69926 10892 ft 335 kts 308°
2026-05-07 18:13 53.08491 -1.72858 10366 ft 332 kts 307°
2026-05-07 18:13 53.09981 -1.75779 9855 ft 328 kts 307°
2026-05-07 18:13 53.11448 -1.78655 9310 ft 324 kts 307°
2026-05-07 18:13 53.12894 -1.81480 8836 ft 318 kts 308°
2026-05-07 18:14 53.14313 -1.84247 8396 ft 311 kts 308°
2026-05-07 18:14 53.15680 -1.86911 7963 ft 306 kts 308°
2026-05-07 18:14 53.17075 -1.89632 7526 ft 301 kts 308°
2026-05-07 18:14 53.18427 -1.92270 7143 ft 295 kts 308°
2026-05-07 18:15 53.19727 -1.94806 7026 ft 281 kts 308°
2026-05-07 18:15 53.21048 -1.97141 7011 ft 276 kts 321°
2026-05-07 18:15 53.22797 -1.98459 7016 ft 281 kts 348°
2026-05-07 18:15 53.24704 -1.98343 7019 ft 285 kts 15°
2026-05-07 18:16 53.26528 -1.97041 7019 ft 286 kts 28°
2026-05-07 18:16 53.28274 -1.95411 7021 ft 288 kts 30°
2026-05-07 18:16 53.30007 -1.93735 7023 ft 288 kts 30°
2026-05-07 18:16 53.31737 -1.92051 7074 ft 288 kts 30°
2026-05-07 18:17 53.33449 -1.90387 6973 ft 288 kts 30°
2026-05-07 18:17 53.35202 -1.88684 6720 ft 287 kts 30°
2026-05-07 18:17 53.36927 -1.87014 6512 ft 285 kts 30°
2026-05-07 18:17 53.38623 -1.85373 6318 ft 285 kts 30°
2026-05-07 18:18 53.40438 -1.84101 6097 ft 283 kts
2026-05-07 18:18 53.42370 -1.84171 5893 ft 276 kts 346°
2026-05-07 18:18 53.44196 -1.85000 5688 ft 270 kts 341°
2026-05-07 18:18 53.45979 -1.85954 5366 ft 269 kts 340°
2026-05-07 18:19 53.47755 -1.86927 5034 ft 268 kts 340°
2026-05-07 18:19 53.49510 -1.87962 4699 ft 266 kts 332°
2026-05-07 18:19 53.50870 -1.89940 4354 ft 258 kts 297°
2026-05-07 18:19 53.51265 -1.92746 4078 ft 245 kts 259°
2026-05-07 18:20 53.50659 -1.95279 4001 ft 229 kts 232°
2026-05-07 18:20 53.49670 -1.97377 3989 ft 231 kts 227°
2026-05-07 18:20 53.48652 -1.99448 4009 ft 227 kts 228°
2026-05-07 18:20 53.47702 -2.01428 3997 ft 209 kts 229°
2026-05-07 18:21 53.46822 -2.03294 3807 ft 200 kts 229°
2026-05-07 18:21 53.45971 -2.05108 3480 ft 197 kts 229°
2026-05-07 18:21 53.45135 -2.06877 3188 ft 190 kts 227°
2026-05-07 18:21 53.44332 -2.08572 2922 ft 181 kts 228°
2026-05-07 18:22 53.43563 -2.10196 2679 ft 176 kts 228°
2026-05-07 18:22 53.43307 -2.10736 2600 ft 175 kts 228°
2026-05-07 18:22 53.42094 -2.13300 2215 ft 162 kts 227°
2026-05-07 18:22 53.41410 -2.14742 2000 ft 153 kts 227°
2026-05-07 18:23 53.40765 -2.16100 1794 ft 144 kts 227°
2026-05-07 18:23 53.40158 -2.17381 1599 ft 140 kts 227°
2026-05-07 18:23 53.39548 -2.18664 1417 ft 142 kts 227°
2026-05-07 18:23 53.38924 -2.19976 1202 ft 146 kts 228°
2026-05-07 18:24 53.38289 -2.21316 1020 ft 147 kts 228°
2026-05-07 18:24 53.37685 -2.22706 815 ft 147 kts 232°
2026-05-07 18:24 53.37075 -2.24016 605 ft 138 kts 227°
2026-05-07 18:24 53.36455 -2.25245 408 ft 138 kts 230°
2026-05-07 18:25 53.35869 -2.26476 264 ft 129 kts 229°
2026-05-07 18:25 53.35363 -2.27469 243 ft 86 kts 226°
2026-05-07 18:25 53.35110 -2.28055 235 ft 58 kts 234°
2026-05-07 18:25 53.34978 -2.28421 233 ft 28 kts 246°
2026-05-07 18:26 53.34958 -2.28716 229 ft 23 kts 313°
2026-05-07 18:26 53.35035 -2.28716 229 ft 17 kts 52°
2026-05-07 18:26 53.35128 -2.28532 231 ft 13 kts 52°
2026-05-07 18:26 53.35161 -2.28447 234 ft 7 kts 57°
2026-05-07 18:27 53.35175 -2.28415 232 ft 4 kts 55°
2026-05-07 18:27 53.35181 -2.28400 233 ft 0 kts 53°
2026-05-07 18:27 53.35222 -2.28302 235 ft 13 kts 47°
2026-05-07 18:27 53.35283 -2.28189 235 ft 12 kts 47°
2026-05-07 18:28 53.35332 -2.28120 236 ft 7 kts 34°
2026-05-07 18:28 53.35362 -2.28078 237 ft 9 kts 43°
2026-05-07 18:28 53.35410 -2.28001 238 ft 8 kts 44°
2026-05-07 18:28 53.35439 -2.27954 239 ft 4 kts 45°